Regional Weather Roundup
Issued by NWS

Home | Current Version | Previous Version | Graphics & Text | Print | Product List | Glossary Off
Versions: 1 2 3 4 5 6 7 8 9 10 11 12 13 14 15 16 17 18 19 20 21 22 23 24 25 26 27 28 29 30 31 32 33 34 35 36 37 38 39 40 41 42 43 44 45 46 47 48 49 50

000
ASUS43 KMKX 050411
RWRWI

WISCONSIN REGIONAL WEATHER ROUNDUP
NATIONAL WEATHER SERVICE MILWAUKEE/SULLIVAN WI
1000 PM CST SUN DEC 04 2016

NOTE: "FAIR" INDICATES FEW OR NO CLOUDS BELOW 12,000 FEET WITH NO
SIGNIFICANT WEATHER AND/OR OBSTRUCTIONS TO VISIBILITY.

WIZ001-002-006>008-014>016-023>028-050500-
NORTHWEST WISCONSIN

CITY           SKY/WX    TMP DP  RH WIND       PRES   REMARKS
SUPERIOR ARPT  CLOUDY    34  33  96 SW7       29.66S WCI  28
ASHLAND        CLOUDY    33  31  92 SW9       29.68S WCI  25
HAYWARD        CLOUDY    34  31  88 SW8       29.69R WCI  27
SIREN          CLOUDY    34  32  92 SW7       29.71S WCI  28
CUMBERLAND     CLOUDY    32  30  93 W12G22    29.72R WCI  23
RICE LAKE      CLOUDY    34  32  91 W9        29.74R WCI  27
CHETEK         CLOUDY    33  33  97 W5        29.74R WCI  29
LADYSMITH      CLOUDY    33  32  97 SW8       29.73S WCI  26
EAU CLAIRE     CLOUDY    35  32  88 SW8       29.75S WCI  29
MENOMONIE      CLOUDY    35  35 100 SW9       29.76R WCI  27
NEW RICHMOND   CLOUDY    34  32  94 SW8       29.76R WCI  27
OSCEOLA        CLOUDY    35  31  86 SW9       29.78R WCI  27
$$

WIZ003>005-009-010-017-018-050500-
NORTH CENTRAL WISCONSIN

CITY           SKY/WX    TMP DP  RH WIND       PRES   REMARKS
MANITOWISH WTR MIX PCPN  29  29 100 SW7       29.67S WCI  22
ARBOR VITAE    CLOUDY    32  31  95 SW7       29.67F FOG     WCI  25
WOODRUFF       CLOUDY    32  31  95 SW7       29.67F FOG     WCI  25
RHINELANDER    CLOUDY    30  30 100 SW8       29.69F WCI  22
EAGLE RIVER    MIX PCPN  29  29 100 SW5       29.68S WCI  24
LAND O LAKES   CLOUDY    29  29 100 SW3       29.69S FOG
PHILLIPS       CLOUDY    31  31 100 SW8       29.68S WCI  23
TOMAHAWK       CLOUDY    30  28  94 CALM      29.71S
MEDFORD        LGT SNOW  31  30  96 SW7       29.71F WCI  24
MERRILL        CLOUDY    31  31 100 SW5       29.73S WCI  26
$$

WIZ029-030-035-036-043>047-050500-
CENTRAL WISCONSIN

CITY           SKY/WX    TMP DP  RH WIND       PRES   REMARKS
WAUSAU         CLOUDY    31  30  96 SW10      29.73S WCI  22
MOSINEE        NOT AVBL
MARSHFIELD     LGT SNOW  32  30  92 SW13      29.74S FOG     WCI  22
STEVENS POINT  CLOUDY    30  30 100 SW8       29.76F WCI  22
WAUPACA        CLOUDY    33  31  93 CALM      29.79F FOG
WAUTOMA        CLOUDY    31  30  96 S7        29.81F WCI  24
WISC RAPIDS    CLOUDY    32  31  96 SW9       29.79R WCI  24
CAMP DOUGLAS   CLOUDY    33  30  87 SW10      29.79S WCI  25
$$

WIZ011>013-019>022-031-037>040-048>050-050500-
NORTHEAST WISCONSIN

CITY           SKY/WX    TMP DP  RH WIND       PRES   REMARKS
ANTIGO         CLOUDY    29  29 100 SW8       29.72F WCI  21
SHAWANO        CLOUDY    33  31  92 SW6       29.78S WCI  27
OCONTO         CLOUDY    32  30  94 SW5       29.78F WCI  27
STURGEON BAY   LGT SNOW  32  31  96 SW9       29.78F FOG     WCI  24
GREEN BAY      CLOUDY    33  32  96 SW8       29.80S WCI  26
MANITOWOC      CLOUDY    33  30  88 W5        29.82R WCI  29
APPLETON       CLOUDY    30  30 100 SW8       29.79S WCI  23
CLINTONVILLE   CLOUDY    32  30  93 SW7       29.79S FOG     WCI  26
OSHKOSH        CLOUDY    32  29  88 SW8       29.81S FOG     WCI  25
$$

WIZ032>034-041-042-053>061-050500-
SOUTHWEST WISCONSIN

CITY           SKY/WX    TMP DP  RH WIND       PRES   REMARKS
LA CROSSE      CLOUDY    36  32  85 S8        29.83R WCI  30
SPARTA         CLOUDY    33  32  98 SW3       29.82R
VIROQUA        CLOUDY    32  32 100 SW13      29.82S WCI  22
BOSCOBEL       CLOUDY    35  31  85 SW7       29.88S WCI  29
PRAIRIE DU CHI CLOUDY    34  31  88 SW6       29.88S WCI  29
PLATTEVILLE    CLOUDY    33  33 100 SW13G18   29.89R WCI  23
$$

WIZ056-057-062-063-064-067-068-050500-
SOUTH CENTRAL WISCONSIN

CITY           SKY/WX    TMP DP  RH WIND       PRES   REMARKS
REEDSBURG      CLOUDY    32  32  99 W8        29.83S WCI  25
BARABOO/DELLS  CLOUDY    32  31  96 W7        29.82S WCI  26
LONE ROCK      CLOUDY    34  31  88 SW5       29.86S WCI  30
MINERAL POINT  CLOUDY    34  32  93 W12       29.86R WCI  25
MADISON        CLOUDY    32  30  92 W9        29.85R WCI  24
MIDDLETON      CLOUDY    34  33  98 W13       29.85S WCI  25
WATERTOWN      CLOUDY    31  31 100 SW7       29.85R FOG     WCI  24
MONROE         CLOUDY    32  32 100 W20       29.86R WCI  20
JANESVILLE     CLOUDY    32  32 100 W7        29.88R FOG     WCI  26
$$

WIZ051-052-058>065-066-070>072-050500-
SOUTHEAST WISCONSIN

CITY           SKY/WX    TMP DP  RH WIND       PRES   REMARKS
MILWAUKEE      CLOUDY    33  29  85 SW9       29.85S FOG     WCI  25
WAUKESHA       CLOUDY    30  30 100 SW8       29.85S FOG     WCI  23
MILWAUKEE/TIMM CLOUDY    32  28  86 W7        29.86R FOG     WCI  26
RACINE         CLOUDY    31  28  89 SW7       29.87S FOG     WCI  24
BURLINGTON     CLOUDY    31  31  99 W6        29.86R FOG     WCI  25
KENOSHA        CLOUDY    30  28  92 W12       29.86S FOG     WCI  20
FOND DU LAC    FLURRIES  32  28  85 SW8       29.83R WCI  25
SHEBOYGAN      CLOUDY    32  29  88 W12       29.82R WCI  23
WEST BEND      CLOUDY    32  32 100 W6        29.83R FOG     WCI  26
JUNEAU         CLOUDY    31  29  94 SW8       29.85R FOG     WCI  23
$$

LSZ147-162-050500-
LAKE SUPERIOR

STATION/POSITION TIME  TEMP    WIND        PRES    WAVE
                       AIR SEA DIR/SP/G            HT/PER
                 (UTC) (F)     (DEG/KT/KT) (MB)    (FT/S)
DEVILS ISLAND    0400   34     200/  9/ 12 1004.9F
PORT WING        0330   34     190/  7/  9 1004.7F
SAXON HARBOR     0330   34     200/  6/  9 1005.1S
$$

LMZ867-665-643>646-050500-
LAKE MICHIGAN

STATION/POSITION TIME  TEMP    WIND        PRES    WAVE
                       AIR SEA DIR/SP/G            HT/PER
                 (UTC) (F)     (DEG/KT/KT) (MB)    (FT/S)
CHAMBERS ISLAND  0340   34     200/  8/ 15 1007.8F
NORTHPORT PIER   0340   33     210/  1/  4 1008.1F
SISTER BAY       0338   33     200/  8/ 10   N/A
ALGOMA LAKESHORE 0336          250/  7/ 10   N/A
KEWAUNEE LAKESHO 0348   32     250/  6/ 11 1008.5F
SHEBOYGAN LAKESH 0400   33     250/ 10/ 13 1010.4R
PORT WASHINGTON  0330   33     260/  6/ 10 1011.2F
MILWAUKEE LAKESH 0350   33     260/ 11/ 16   N/A
KENOSHA   LAKESH 0400   31     240/  7/  8 1011.5
$$

TC  - TEMPERATURE IN CELSIUS
VSB - VISIBILITY IN STATUTE MILES
WCI - WIND CHILL INDEX
HX  - HEAT INDEX




USA.gov is the U.S. government's official web portal to all federal, state and local government web resources and services.